QPF
0.00 0.00 0.00 0.00 0.00 0.00 0.00 0.00 0.00 0.00 0.00 0.00 0.00 0.00 0.00 0.00 0.00 0.00 0.00 0.00 0.00 0.00 0.00 0.00 0.00 0.00 0.00 0.00 0.00 0.00 0.00 0.00 0.00 0.00 0.00 0.00 0.00 0.00 0.00 0.00 0.00 0.00 0.00
0.00 0.00 0.00 0.00 0.00 0.00 0.00 0.00 0.00 0.00 0.00 0.00 0.00 0.00 0.00 0.00 0.00 0.00 0.00 0.00 0.00 0.00 0.00 0.00 0.00 0.00 0.00 0.00 0.00 0.00 0.00 0.00 0.00 0.00 0.00 0.00 0.00 0.00 0.00 0.00 0.00 0.00 0.00
0.00 0.00 0.00 0.00 0.00 0.00 0.00 0.00 0.00 0.00 0.00 0.00 0.00 0.00 0.00 0.00 0.00 0.00 0.00 0.00 0.00 0.00 0.00 0.00 0.00 0.00 0.00 0.00 0.00 0.00 0.00 0.00 0.00 0.00 0.00 0.00 0.00 0.00 0.00 0.00 0.00 0.00 0.00
0.00 0.00 0.00 0.00 0.00 0.00 0.00 0.00 0.00 0.00 0.00 0.00 0.00 0.00 0.00 0.00 0.00 0.00 0.00 0.00 0.00 0.00 0.00 0.00 0.00 0.00 0.00 0.00 0.00 0.00 0.00 0.00 0.00 0.00 0.00 0.00 0.00 0.00 0.00 0.00 0.00 0.00 0.00
0.00 0.00 0.00 0.00 0.00 0.00 0.00 0.00 0.00 0.00 0.00 0.00 0.00 0.00 0.00 0.00 0.00 0.00 0.00 0.00 0.00 0.00 0.00 0.00 0.00 0.00 0.00 0.00 0.00 0.00 0.00 0.00 0.00 0.00 0.00 0.00 0.00 0.00 0.00 0.00 0.00 0.00 0.00
0.00 0.00 0.00 0.00 0.00 0.00 0.00 0.00 0.00 0.00 0.00 0.00 0.00 0.00 0.00 0.00 0.00 0.00 0.00 0.00 0.00 0.00 0.00 0.00 0.00 0.00 0.00 0.00 0.00 0.00 0.00 0.00 0.00 0.00 0.00 0.00 0.00 0.00 0.00 0.00 0.00 0.00 0.00
0.00 0.00 0.00 0.00 0.00 0.00 0.00 0.00 0.00 0.00 0.00 0.00 0.00 0.00 0.00 0.00 0.00 0.00 0.00 0.00 0.00 0.00 0.00 0.00 0.00 0.00 0.00 0.00 0.00 0.00 0.00 0.00 0.00 0.00 0.00 0.00 0.00 0.00 0.00 0.00 0.00 0.00 0.00
0.00 0.00 0.00 0.00 0.00 0.00 0.00 0.00 0.00 0.00 0.00 0.00 0.00 0.00 0.00 0.00 0.00 0.00 0.00 0.00 0.00 0.00 0.00 0.00 0.00 0.00 0.00 0.00 0.00 0.00 0.00 0.00 0.00 0.00 0.00 0.00 0.00 0.00 0.00 0.00 0.00 0.01 0.00
0.00 0.00 0.00 0.00 0.00 0.00 0.00 0.00 0.00 0.00 0.00 0.00 0.00 0.00 0.00 0.00 0.00 0.00 0.00 0.00 0.00 0.00 0.00 0.00 0.00 0.00 0.00 0.00 0.00 0.00 0.00 0.00 0.00 0.00 0.00 0.00 0.00 0.00 0.00 0.00 0.01 0.02 0.02
0.00 0.00 0.00 0.00 0.00 0.00 0.00 0.00 0.00 0.00 0.00 0.00 0.00 0.00 0.00 0.00 0.00 0.00 0.00 0.00 0.00 0.00 0.00 0.00 0.00 0.00 0.00 0.00 0.00 0.00 0.00 0.00 0.00 0.00 0.00 0.00 0.00 0.00 0.00 0.00 0.01 0.02 0.03
0.00 0.00 0.00 0.00 0.00 0.00 0.00 0.00 0.00 0.00 0.00 0.00 0.00 0.00 0.00 0.00 0.00 0.00 0.00 0.00 0.00 0.00 0.00 0.00 0.00 0.00 0.00 0.00 0.00 0.00 0.00 0.00 0.00 0.00 0.00 0.00 0.00 0.00 0.00 0.00 0.01 0.01 0.03
0.00 0.00 0.00 0.00 0.00 0.00 0.00 0.00 0.00 0.00 0.00 0.00 0.00 0.00 0.00 0.00 0.00 0.00 0.00 0.00 0.00 0.00 0.00 0.00 0.00 0.00 0.00 0.01 0.01 0.01 0.01 0.00 0.00 0.00 0.00 0.00 0.00 0.00 0.00 0.00 0.01 0.01 0.01
0.00 0.00 0.00 0.00 0.00 0.00 0.00 0.00 0.00 0.00 0.00 0.00 0.00 0.00 0.00 0.00 0.00 0.00 0.00 0.00 0.00 0.00 0.00 0.00 0.00 0.00 0.01 0.01 0.01 0.01 0.01 0.00 0.00 0.00 0.00 0.00 0.00 0.00 0.00 0.00 0.01 0.01 0.01
0.00 0.00 0.00 0.00 0.00 0.00 0.00 0.00 0.00 0.00 0.00 0.00 0.00 0.00 0.00 0.00 0.00 0.00 0.00 0.00 0.00 0.00 0.00 0.00 0.00 0.01 0.01 0.01 0.01 0.01 0.01 0.00 0.00 0.00 0.00 0.00 0.00 0.00 0.00 0.01 0.01 0.02 0.03
0.00 0.00 0.00 0.00 0.00 0.00 0.00 0.00 0.00 0.00 0.00 0.00 0.00 0.00 0.00 0.00 0.00 0.00 0.00 0.00 0.00 0.00 0.00 0.00 0.01 0.01 0.01 0.01 0.01 0.01 0.01 0.00 0.00 0.00 0.00 0.00 0.00 0.01 0.02 0.04 0.04 0.05 0.07
0.00 0.00 0.00 0.00 0.00 0.00 0.00 0.00 0.00 0.00 0.00 0.00 0.00 0.00 0.00 0.00 0.00 0.00 0.00 0.00 0.00 0.00 0.00 0.00 0.01 0.01 0.01 0.01 0.01 0.01 0.01 0.00 0.00 0.00 0.00 0.00 0.00 0.01 0.01 0.02 0.03 0.03 0.05
0.00 0.00 0.00 0.00 0.00 0.00 0.00 0.00 0.00 0.00 0.00 0.00 0.00 0.00 0.00 0.00 0.00 0.00 0.00 0.00 0.00 0.00 0.00 0.00 0.01 0.01 0.01 0.01 0.01 0.01 0.01 0.00 0.00 0.00 0.00 0.00 0.00 0.00 0.00 0.00 0.01 0.01 0.02
0.00 0.00 0.00 0.00 0.00 0.00 0.00 0.00 0.00 0.00 0.00 0.00 0.00 0.00 0.00 0.00 0.00 0.00 0.00 0.00 0.00 0.00 0.00 0.00 0.01 0.01 0.01 0.01 0.01 0.01 0.01 0.01 0.00 0.00 0.00 0.00 0.00 0.00 0.00 0.01 0.02 0.02 0.01
0.00 0.00 0.00 0.00 0.00 0.00 0.00 0.00 0.00 0.00 0.00 0.00 0.00 0.00 0.00 0.00 0.00 0.00 0.00 0.00 0.00 0.00 0.00 0.00 0.01 0.01 0.01 0.01 0.02 0.02 0.02 0.01 0.00 0.00 0.00 0.00 0.00 0.00 0.01 0.03 0.04 0.02 0.01
0.00 0.00 0.00 0.00 0.00 0.00 0.00 0.00 0.00 0.00 0.00 0.00 0.00 0.00 0.00 0.00 0.00 0.00 0.00 0.00 0.00 0.00 0.00 0.00 0.00 0.01 0.01 0.01 0.02 0.02 0.02 0.01 0.00 0.00 0.00 0.00 0.00 0.01 0.02 0.03 0.04 0.02 0.01
0.00 0.00 0.00 0.00 0.00 0.00 0.00 0.00 0.00 0.00 0.00 0.00 0.00 0.00 0.00 0.00 0.00 0.00 0.00 0.00 0.00 0.00 0.00 0.00 0.01 0.01 0.01 0.01 0.01 0.02 0.01 0.01 0.00 0.00 0.00 0.00 0.00 0.01 0.02 0.02 0.02 0.02 0.02
0.00 0.00 0.00 0.00 0.00 0.00 0.00 0.00 0.00 0.00 0.00 0.00 0.00 0.00 0.00 0.00 0.00 0.00 0.00 0.00 0.00 0.00 0.01 0.01 0.01 0.01 0.01 0.01 0.01 0.01 0.02 0.01 0.00 0.00 0.00 0.00 0.00 0.01 0.01 0.01 0.01 0.01 0.01
0.00 0.00 0.00 0.00 0.00 0.00 0.00 0.00 0.00 0.00 0.00 0.00 0.00 0.00 0.00 0.00 0.00 0.00 0.00 0.00 0.00 0.01 0.01 0.01 0.01 0.01 0.01 0.01 0.01 0.01 0.01 0.01 0.01 0.00 0.00 0.00 0.01 0.01 0.00 0.00 0.00 0.00 0.00
0.00 0.00 0.00 0.00 0.00 0.00 0.00 0.00 0.00 0.00 0.00 0.00 0.00 0.00 0.00 0.00 0.00 0.00 0.00 0.00 0.00 0.01 0.01 0.01 0.01 0.01 0.01 0.01 0.01 0.01 0.01 0.01 0.01 0.01 0.00 0.00 0.00 0.00 0.00 0.00 0.00 0.00 0.00
0.00 0.00 0.00 0.00 0.00 0.00 0.00 0.00 0.00 0.00 0.00 0.00 0.00 0.00 0.00 0.00 0.00 0.00 0.00 0.00 0.00 0.00 0.01 0.01 0.01 0.01 0.01 0.01 0.01 0.01 0.01 0.01 0.01 0.01 0.00 0.00 0.00 0.00 0.00 0.00 0.00 0.00 0.00
0.00 0.00 0.00 0.00 0.00 0.00 0.00 0.00 0.00 0.00 0.00 0.00 0.00 0.00 0.00 0.00 0.00 0.00 0.00 0.00 0.00 0.00 0.01 0.01 0.01 0.01 0.01 0.01 0.01 0.01 0.01 0.01 0.01 0.01 0.01 0.00 0.00 0.00 0.00 0.00 0.00 0.00 0.00
MSLP
1011.74 1012.37 1013.08 1013.82 1014.58 1015.33 1016.07 1016.81 1017.53 1018.24 1018.91 1019.55 1020.14 1020.69 1021.19 1021.67 1022.13 1022.60 1023.07 1023.55 1024.01 1024.46 1024.87 1025.24 1025.56 1025.84 1026.10 1026.34 1026.56 1026.77 1026.95 1027.07 1027.13 1027.09 1026.95 1026.71 1026.39 1026.02 1025.65 1025.31 1025.02 1024.79 1024.63
1011.08 1011.67 1012.32 1013.00 1013.68 1014.35 1015.02 1015.70 1016.38 1017.06 1017.72 1018.36 1018.95 1019.50 1020.01 1020.48 1020.94 1021.40 1021.87 1022.35 1022.84 1023.33 1023.80 1024.23 1024.62 1024.96 1025.27 1025.54 1025.79 1026.02 1026.21 1026.35 1026.43 1026.42 1026.31 1026.09 1025.79 1025.41 1025.01 1024.62 1024.27 1023.98 1023.75
1010.66 1011.17 1011.73 1012.30 1012.86 1013.43 1014.00 1014.61 1015.23 1015.88 1016.53 1017.17 1017.76 1018.31 1018.80 1019.25 1019.68 1020.10 1020.54 1021.01 1021.51 1022.02 1022.53 1023.02 1023.47 1023.88 1024.24 1024.56 1024.85 1025.10 1025.33 1025.51 1025.63 1025.68 1025.62 1025.46 1025.20 1024.84 1024.43 1024.00 1023.59 1023.22 1022.91
1010.40 1010.81 1011.25 1011.68 1012.12 1012.55 1013.02 1013.54 1014.11 1014.72 1015.36 1015.99 1016.58 1017.11 1017.58 1017.99 1018.36 1018.73 1019.12 1019.55 1020.03 1020.55 1021.10 1021.64 1022.15 1022.63 1023.05 1023.43 1023.76 1024.07 1024.34 1024.58 1024.77 1024.89 1024.92 1024.84 1024.64 1024.33 1023.93 1023.47 1023.00 1022.54 1022.14
1010.23 1010.53 1010.84 1011.14 1011.43 1011.73 1012.08 1012.51 1013.01 1013.59 1014.21 1014.83 1015.41 1015.93 1016.36 1016.72 1017.03 1017.33 1017.65 1018.04 1018.49 1019.01 1019.57 1020.16 1020.73 1021.27 1021.76 1022.20 1022.59 1022.96 1023.29 1023.60 1023.88 1024.09 1024.22 1024.23 1024.12 1023.87 1023.49 1023.02 1022.49 1021.95 1021.44
1010.11 1010.31 1010.49 1010.64 1010.79 1010.95 1011.19 1011.52 1011.97 1012.51 1013.10 1013.71 1014.27 1014.77 1015.16 1015.47 1015.71 1015.95 1016.21 1016.54 1016.96 1017.47 1018.05 1018.67 1019.29 1019.89 1020.44 1020.94 1021.40 1021.82 1022.22 1022.61 1022.96 1023.27 1023.51 1023.62 1023.60 1023.42 1023.07 1022.59 1022.02 1021.40 1020.79
1010.02 1010.12 1010.18 1010.20 1010.21 1010.25 1010.37 1010.62 1010.99 1011.49 1012.06 1012.64 1013.19 1013.66 1014.02 1014.28 1014.48 1014.65 1014.85 1015.14 1015.52 1016.02 1016.61 1017.26 1017.92 1018.57 1019.17 1019.72 1020.23 1020.70 1021.16 1021.61 1022.04 1022.44 1022.76 1022.97 1023.03 1022.92 1022.61 1022.14 1021.54 1020.86 1020.16
1009.97 1009.98 1009.93 1009.83 1009.71 1009.64 1009.66 1009.81 1010.12 1010.57 1011.10 1011.66 1012.19 1012.64 1012.97 1013.20 1013.36 1013.49 1013.66 1013.90 1014.26 1014.75 1015.33 1015.99 1016.67 1017.35 1017.98 1018.56 1019.10 1019.61 1020.11 1020.60 1021.09 1021.55 1021.95 1022.24 1022.37 1022.32 1022.06 1021.60 1020.99 1020.27 1019.51
1009.98 1009.91 1009.77 1009.56 1009.34 1009.15 1009.08 1009.15 1009.39 1009.77 1010.27 1010.79 1011.30 1011.73 1012.05 1012.26 1012.39 1012.50 1012.64 1012.86 1013.20 1013.66 1014.24 1014.89 1015.57 1016.25 1016.89 1017.48 1018.03 1018.55 1019.06 1019.57 1020.09 1020.60 1021.04 1021.39 1021.58 1021.58 1021.36 1020.93 1020.33 1019.60 1018.80
1010.09 1009.94 1009.71 1009.41 1009.09 1008.82 1008.65 1008.64 1008.80 1009.13 1009.57 1010.06 1010.53 1010.94 1011.24 1011.44 1011.56 1011.66 1011.79 1011.99 1012.31 1012.75 1013.30 1013.93 1014.59 1015.24 1015.86 1016.43 1016.97 1017.48 1017.99 1018.50 1019.03 1019.55 1020.02 1020.40 1020.63 1020.67 1020.49 1020.10 1019.53 1018.81 1018.02
1010.29 1010.08 1009.77 1009.39 1008.99 1008.63 1008.38 1008.30 1008.39 1008.65 1009.02 1009.46 1009.89 1010.26 1010.54 1010.73 1010.84 1010.93 1011.05 1011.25 1011.54 1011.95 1012.46 1013.05 1013.66 1014.27 1014.85 1015.39 1015.89 1016.38 1016.87 1017.37 1017.89 1018.41 1018.88 1019.27 1019.53 1019.60 1019.46 1019.12 1018.59 1017.91 1017.14
1010.56 1010.29 1009.92 1009.47 1009.00 1008.58 1008.27 1008.11 1008.12 1008.30 1008.60 1008.97 1009.34 1009.66 1009.91 1010.07 1010.17 1010.25 1010.35 1010.53 1010.79 1011.16 1011.63 1012.15 1012.71 1013.27 1013.80 1014.30 1014.77 1015.23 1015.69 1016.18 1016.68 1017.19 1017.66 1018.05 1018.31 1018.41 1018.31 1018.00 1017.52 1016.90 1016.17
1010.88 1010.55 1010.12 1009.63 1009.11 1008.63 1008.26 1008.04 1007.98 1008.07 1008.28 1008.56 1008.85 1009.10 1009.29 1009.41 1009.48 1009.53 1009.62 1009.76 1009.99 1010.31 1010.72 1011.19 1011.69 1012.19 1012.68 1013.14 1013.58 1014.01 1014.46 1014.93 1015.42 1015.91 1016.36 1016.75 1017.02 1017.13 1017.06 1016.80 1016.37 1015.80 1015.13
1011.17 1010.80 1010.33 1009.80 1009.25 1008.74 1008.33 1008.05 1007.92 1007.92 1008.03 1008.20 1008.38 1008.54 1008.65 1008.70 1008.72 1008.74 1008.78 1008.89 1009.07 1009.35 1009.71 1010.12 1010.57 1011.03 1011.47 1011.90 1012.32 1012.75 1013.18 1013.64 1014.12 1014.59 1015.04 1015.42 1015.68 1015.81 1015.76 1015.53 1015.15 1014.64 1014.03
1011.39 1010.98 1010.49 1009.94 1009.38 1008.86 1008.42 1008.10 1007.90 1007.81 1007.81 1007.86 1007.92 1007.96 1007.96 1007.93 1007.88 1007.84 1007.84 1007.90 1008.04 1008.28 1008.59 1008.95 1009.36 1009.78 1010.20 1010.61 1011.03 1011.45 1011.88 1012.34 1012.81 1013.28 1013.71 1014.07 1014.34 1014.46 1014.43 1014.24 1013.90 1013.44 1012.89
1011.49 1011.07 1010.57 1010.03 1009.48 1008.96 1008.52 1008.16 1007.90 1007.73 1007.61 1007.53 1007.45 1007.36 1007.25 1007.11 1006.98 1006.87 1006.81 1006.83 1006.93 1007.12 1007.40 1007.73 1008.10 1008.50 1008.90 1009.31 1009.73 1010.15 1010.59 1011.05 1011.51 1011.97 1012.39 1012.74 1012.99 1013.12 1013.10 1012.93 1012.64 1012.23 1011.73
1011.47 1011.04 1010.56 1010.04 1009.52 1009.03 1008.59 1008.21 1007.90 1007.64 1007.41 1007.20 1006.99 1006.76 1006.52 1006.28 1006.06 1005.88 1005.77 1005.74 1005.81 1005.97 1006.21 1006.52 1006.87 1007.25 1007.65 1008.05 1008.47 1008.89 1009.33 1009.79 1010.24 1010.68 1011.08 1011.42 1011.66 1011.79 1011.78 1011.64 1011.38 1011.02 1010.58
1011.32 1010.91 1010.46 1009.98 1009.51 1009.05 1008.63 1008.24 1007.88 1007.55 1007.23 1006.89 1006.55 1006.19 1005.84 1005.49 1005.19 1004.95 1004.79 1004.72 1004.76 1004.90 1005.12 1005.40 1005.74 1006.11 1006.49 1006.88 1007.29 1007.71 1008.14 1008.58 1009.02 1009.44 1009.82 1010.14 1010.37 1010.50 1010.51 1010.39 1010.18 1009.86 1009.47
1011.11 1010.71 1010.30 1009.87 1009.44 1009.03 1008.63 1008.23 1007.85 1007.45 1007.04 1006.61 1006.15 1005.69 1005.23 1004.80 1004.43 1004.13 1003.93 1003.83 1003.85 1003.96 1004.17 1004.43 1004.75 1005.10 1005.46 1005.84 1006.23 1006.63 1007.03 1007.45 1007.86 1008.26 1008.62 1008.92 1009.15 1009.28 1009.31 1009.23 1009.05 1008.78 1008.44
1010.85 1010.49 1010.11 1009.72 1009.34 1008.97 1008.59 1008.20 1007.79 1007.34 1006.86 1006.35 1005.81 1005.26 1004.72 1004.23 1003.80 1003.46 1003.23 1003.11 1003.11 1003.20 1003.39 1003.63 1003.92 1004.24 1004.57 1004.92 1005.28 1005.65 1006.03 1006.42 1006.80 1007.17 1007.51 1007.80 1008.03 1008.17 1008.22 1008.18 1008.04 1007.82 1007.53
1010.61 1010.26 1009.91 1009.56 1009.22 1008.87 1008.50 1008.11 1007.68 1007.21 1006.68 1006.11 1005.51 1004.90 1004.31 1003.77 1003.31 1002.94 1002.69 1002.56 1002.53 1002.60 1002.76 1002.97 1003.23 1003.51 1003.82 1004.13 1004.45 1004.79 1005.14 1005.50 1005.86 1006.21 1006.53 1006.82 1007.05 1007.21 1007.29 1007.28 1007.19 1007.01 1006.75
1010.40 1010.06 1009.72 1009.39 1009.06 1008.72 1008.37 1007.97 1007.53 1007.03 1006.47 1005.87 1005.23 1004.59 1003.97 1003.41 1002.93 1002.55 1002.28 1002.13 1002.08 1002.12 1002.25 1002.42 1002.64 1002.89 1003.15 1003.43 1003.72 1004.03 1004.35 1004.69 1005.04 1005.38 1005.71 1006.00 1006.25 1006.43 1006.54 1006.56 1006.50 1006.35 1006.13
1010.23 1009.88 1009.53 1009.20 1008.87 1008.53 1008.17 1007.76 1007.31 1006.79 1006.22 1005.60 1004.95 1004.30 1003.68 1003.11 1002.62 1002.23 1001.95 1001.78 1001.70 1001.71 1001.79 1001.92 1002.10 1002.31 1002.53 1002.78 1003.05 1003.34 1003.66 1004.00 1004.35 1004.69 1005.03 1005.35 1005.61 1005.82 1005.95 1006.01 1005.97 1005.85 1005.63
1010.10 1009.72 1009.35 1008.99 1008.64 1008.28 1007.90 1007.48 1007.01 1006.48 1005.90 1005.29 1004.64 1004.00 1003.39 1002.83 1002.34 1001.95 1001.65 1001.45 1001.33 1001.30 1001.34 1001.43 1001.56 1001.73 1001.93 1002.16 1002.42 1002.71 1003.04 1003.39 1003.76 1004.13 1004.50 1004.83 1005.12 1005.36 1005.51 1005.58 1005.56 1005.45 1005.24
1009.97 1009.55 1009.14 1008.74 1008.35 1007.96 1007.55 1007.11 1006.63 1006.10 1005.52 1004.91 1004.29 1003.67 1003.07 1002.53 1002.05 1001.65 1001.33 1001.10 1000.95 1000.87 1000.86 1000.91 1001.00 1001.13 1001.31 1001.54 1001.81 1002.11 1002.47 1002.85 1003.25 1003.66 1004.05 1004.42 1004.73 1004.99 1005.16 1005.24 1005.22 1005.11 1004.89
1009.82 1009.35 1008.89 1008.44 1008.01 1007.57 1007.13 1006.66 1006.16 1005.63 1005.07 1004.48 1003.88 1003.29 1002.72 1002.19 1001.72 1001.31 1000.98 1000.72 1000.53 1000.41 1000.35 1000.35 1000.40 1000.51 1000.68 1000.91 1001.19 1001.53 1001.91 1002.33 1002.77 1003.22 1003.65 1004.04 1004.38 1004.64 1004.82 1004.90 1004.88 1004.76 1004.54
Thickness
5729 5722 5713 5703 5694 5687 5680 5673 5665 5656 5647 5640 5633 5627 5621 5613 5606 5599 5592 5584 5577 5568 5559 5552 5545 5536 5530 5522 5514 5506 5498 5489 5480 5474 5473 5472 5468 5462 5455 5448 5442 5437 5431
5725 5720 5712 5703 5696 5689 5682 5674 5667 5659 5651 5645 5637 5630 5621 5614 5607 5598 5590 5583 5575 5567 5558 5549 5542 5533 5524 5516 5507 5498 5490 5482 5473 5466 5463 5465 5467 5459 5448 5439 5431 5424 5418
5719 5716 5709 5702 5694 5689 5683 5676 5669 5660 5652 5643 5632 5624 5617 5612 5606 5599 5591 5583 5574 5566 5557 5548 5538 5529 5520 5512 5502 5492 5483 5475 5467 5457 5451 5448 5454 5449 5442 5431 5421 5411 5404
5712 5709 5705 5699 5693 5687 5679 5673 5666 5658 5651 5640 5633 5627 5621 5618 5614 5604 5594 5583 5572 5564 5555 5545 5535 5526 5517 5508 5498 5487 5477 5467 5460 5451 5441 5434 5430 5422 5425 5424 5412 5401 5392
5706 5703 5700 5696 5691 5684 5676 5668 5661 5654 5647 5639 5632 5626 5622 5619 5611 5602 5594 5583 5573 5562 5553 5543 5533 5523 5514 5504 5493 5482 5471 5462 5453 5445 5435 5425 5416 5407 5400 5406 5403 5394 5383
5700 5698 5696 5692 5687 5681 5673 5665 5658 5653 5644 5637 5630 5625 5622 5616 5609 5603 5594 5583 5572 5561 5550 5539 5530 5521 5511 5499 5488 5476 5466 5455 5445 5435 5426 5417 5408 5402 5395 5393 5392 5385 5376
5693 5691 5690 5687 5683 5677 5671 5663 5657 5653 5645 5637 5630 5625 5619 5612 5606 5601 5591 5579 5570 5561 5550 5537 5528 5518 5507 5495 5482 5470 5460 5449 5438 5427 5417 5407 5398 5389 5381 5376 5375 5371 5366
5686 5684 5683 5681 5679 5674 5668 5662 5657 5652 5644 5636 5629 5620 5612 5604 5601 5594 5585 5576 5568 5558 5546 5533 5523 5514 5502 5489 5476 5464 5453 5441 5430 5419 5408 5397 5388 5377 5368 5360 5354 5354 5354
5676 5676 5675 5674 5672 5669 5664 5659 5653 5647 5640 5632 5623 5615 5606 5598 5592 5584 5576 5569 5561 5550 5538 5528 5517 5507 5495 5483 5470 5459 5447 5435 5423 5411 5399 5387 5378 5367 5357 5347 5338 5331 5333
5666 5666 5666 5665 5663 5660 5656 5652 5646 5640 5633 5624 5616 5608 5600 5592 5583 5574 5568 5561 5552 5541 5532 5522 5510 5499 5488 5477 5464 5453 5441 5428 5416 5404 5392 5380 5370 5358 5348 5338 5328 5319 5312
5653 5653 5653 5653 5651 5649 5645 5640 5634 5628 5622 5614 5607 5599 5591 5582 5574 5567 5561 5552 5543 5534 5524 5514 5503 5493 5482 5471 5459 5448 5435 5422 5409 5396 5384 5373 5361 5350 5341 5330 5321 5311 5301
5638 5639 5639 5640 5639 5636 5633 5628 5621 5615 5609 5603 5596 5589 5582 5574 5566 5561 5553 5543 5535 5526 5517 5507 5497 5487 5476 5466 5455 5443 5430 5416 5403 5391 5378 5367 5354 5344 5333 5323 5314 5305 5295
5623 5624 5625 5625 5624 5622 5619 5616 5610 5603 5597 5590 5583 5578 5572 5565 5560 5554 5546 5537 5528 5520 5510 5500 5491 5481 5471 5460 5449 5437 5424 5411 5398 5385 5372 5361 5348 5338 5328 5318 5309 5299 5289
5608 5608 5609 5610 5609 5607 5605 5603 5599 5592 5585 5578 5572 5568 5563 5557 5552 5545 5537 5529 5520 5511 5502 5492 5483 5472 5461 5451 5441 5429 5417 5404 5391 5379 5367 5355 5343 5333 5322 5312 5303 5293 5284
5594 5593 5593 5593 5594 5593 5592 5589 5586 5581 5574 5567 5562 5558 5553 5547 5540 5534 5527 5519 5510 5502 5493 5484 5475 5464 5453 5444 5432 5421 5409 5396 5384 5372 5361 5350 5340 5329 5317 5307 5298 5288 5280
5581 5580 5580 5579 5579 5579 5578 5576 5574 5570 5563 5557 5552 5547 5541 5535 5529 5523 5517 5511 5503 5494 5485 5476 5467 5458 5449 5439 5426 5414 5401 5389 5378 5367 5356 5345 5335 5325 5315 5306 5298 5287 5277
5569 5568 5568 5567 5567 5566 5564 5562 5561 5558 5553 5548 5543 5536 5530 5525 5520 5515 5509 5503 5496 5488 5478 5469 5460 5452 5444 5432 5421 5410 5396 5384 5374 5363 5352 5342 5333 5323 5312 5302 5294 5284 5273
5560 5559 5558 5557 5555 5554 5552 5549 5547 5545 5542 5538 5533 5527 5520 5514 5510 5506 5502 5496 5489 5481 5472 5464 5455 5447 5439 5427 5416 5404 5391 5380 5371 5360 5349 5340 5331 5319 5308 5298 5289 5280 5271
5549 5548 5547 5545 5544 5542 5540 5536 5535 5535 5531 5529 5525 5519 5512 5506 5502 5498 5494 5489 5482 5474 5466 5457 5448 5440 5433 5421 5410 5398 5387 5377 5367 5356 5346 5336 5327 5317 5305 5295 5288 5281 5273
5541 5538 5535 5532 5531 5530 5527 5524 5525 5524 5522 5518 5514 5510 5505 5500 5496 5493 5488 5482 5475 5467 5458 5451 5442 5432 5424 5414 5403 5392 5381 5372 5362 5352 5341 5331 5322 5312 5301 5292 5284 5278 5272
5532 5527 5523 5521 5520 5517 5514 5513 5513 5513 5510 5506 5503 5499 5496 5492 5488 5483 5479 5473 5466 5458 5450 5443 5434 5425 5415 5406 5396 5385 5375 5366 5355 5346 5337 5327 5317 5307 5298 5289 5281 5275 5267
5520 5515 5511 5509 5508 5506 5503 5502 5502 5501 5497 5494 5491 5489 5486 5483 5477 5473 5468 5462 5455 5447 5440 5432 5425 5416 5406 5397 5388 5378 5369 5358 5347 5339 5331 5321 5311 5302 5293 5285 5278 5270 5261
5508 5503 5499 5497 5497 5495 5492 5491 5491 5488 5485 5483 5481 5479 5476 5472 5467 5462 5458 5451 5443 5436 5430 5422 5415 5407 5397 5388 5378 5370 5362 5352 5341 5333 5324 5315 5306 5297 5288 5281 5272 5264 5257
5495 5491 5488 5487 5487 5485 5482 5480 5479 5476 5474 5473 5471 5469 5466 5463 5458 5452 5445 5439 5433 5426 5420 5413 5405 5397 5388 5379 5369 5361 5353 5345 5336 5327 5318 5309 5300 5291 5282 5275 5267 5259 5252
5482 5478 5475 5475 5475 5474 5472 5469 5468 5466 5464 5462 5460 5458 5454 5452 5448 5442 5436 5430 5425 5417 5408 5403 5395 5387 5380 5372 5362 5354 5346 5338 5329 5320 5309 5301 5292 5285 5278 5271 5263 5255 5248
5470 5467 5465 5465 5465 5463 5462 5460 5457 5454 5452 5450 5449 5447 5444 5440 5436 5433 5429 5423 5414 5408 5399 5391 5383 5377 5369 5361 5354 5345 5337 5329 5320 5311 5303 5295 5289 5282 5275 5267 5260 5253 5246